[[{"header":{"parameterUnit":"m.s-1","parameterCategory":1,"la1":30.2991,"la2":30.254,"lo1":-89.0895,"lo2":-89.0444,"dy":0.0017,"dx":0.0017,"nx":28,"ny":28,"refTime":"2026-02-03T09:00:00:Z","depth":0,"parameterNumber":2,"parameterNumberName":"U-component_of_WINDS"},"data":[0,0,0,0,0,0,0,0,0,0,0,0,0,0,0,0,0,0,0,0,0,0,0,0,0,0,0,0,0,0,0,0,0,0,0,0,0,0,0,0,0,0,0,0,0,0,0,0,0,0,0,0,0,0,0,0,0,0,2.4637,2.4637,0,2.4654,2.4655,2.4655,2.4629,2.4628,2.4627,2.4626,2.4643,2.4644,2.4646,0,0,0,0,0,0,0,0,0,0,0,0,0,2.4581,2.4582,2.4637,2.4637,2.4637,2.4654,2.4655,2.4655,2.4629,2.4628,2.4626,2.4625,2.4643,2.4644,2.4646,0,0,0,0,0,0,0,0,0,0,0,0,0,2.4602,2.4582,2.4637,2.4626,2.4625,2.4654,2.4655,2.4655,2.4629,2.4628,2.4626,2.4625,2.4642,2.4644,2.4646,2.4686,0,0,2.4652,2.4653,0,0,0,0,0,0,0,0,2.4601,2.4604,2.4628,2.4627,2.4626,2.4638,2.4641,2.4665,2.4629,2.4628,2.4626,2.4624,2.4642,2.4644,2.4651,2.4686,2.4687,2.4652,2.4653,2.4654,2.4655,0,0,0,0,0,0,0,2.46,2.4604,2.4644,2.4628,2.4627,2.4621,2.4622,2.4646,2.4642,2.4628,2.4626,2.4628,2.4642,2.4649,2.4651,2.4687,2.4652,2.4654,2.4655,2.4656,2.4758,2.4759,0,0,0,0,0,0,2.46,2.4602,2.4643,2.4644,2.461,2.4623,2.4625,2.4635,2.4642,2.4642,2.4629,2.4627,2.4646,2.4649,2.4651,2.4699,2.4654,2.4656,2.4657,2.4756,2.4758,2.476,0,0,0,0,0,0,2.4598,2.4603,2.4642,2.4623,2.4627,2.4625,2.4638,2.4637,2.4643,2.4644,2.4643,2.4637,2.4645,2.4649,2.4678,2.4699,2.4657,2.4659,2.4755,2.4757,2.4759,2.4793,0,0,0,0,0,0,2.4597,2.4603,2.4618,2.4623,2.4629,2.4668,2.4639,2.4638,2.4647,2.4644,2.465,2.465,2.4644,2.4675,2.468,2.4701,2.466,2.4753,2.4756,2.4758,2.479,2.4796,2.4802,0,0,0,0,0,2.4595,2.4626,2.4619,2.4624,2.4647,2.467,2.4672,2.4665,2.4649,2.4664,2.4664,2.465,2.4696,2.4678,2.4683,2.4705,2.4751,2.4755,2.4758,2.4787,2.4795,2.4801,0,0,0,0,0,0,2.4623,2.4627,2.4618,2.4652,2.4661,2.4665,2.4683,2.4673,2.4686,2.4683,2.4673,2.4675,2.4706,2.4709,2.4689,2.4745,2.4721,2.4726,2.4741,2.4749,2.4754,2.4753,2.4662,0,0,0,0,0,2.4633,2.4651,2.4654,2.4683,2.4688,2.4685,2.4695,2.4689,2.4697,2.47,2.4703,2.4711,2.4727,2.4738,2.4753,2.4791,2.4792,2.4809,2.4814,2.4819,2.4823,2.4844,2.4851,2.4771,2.4771,2.4771,0,0,2.4654,2.4658,2.467,2.4689,2.4695,2.4714,2.4688,2.4709,2.4723,2.4703,2.4731,2.4733,2.4742,2.4776,2.4791,2.4779,2.4846,2.4824,2.4827,2.4828,2.4848,2.4856,2.4862,2.4774,2.4773,2.4773,0,0,2.4701,2.4707,2.4732,2.4739,2.4749,2.4747,2.4753,2.476,2.476,2.4788,2.4774,2.4791,2.4819,2.4826,2.4834,2.4886,2.4874,2.4892,2.4921,2.4942,2.4948,2.4953,2.4972,2.4979,2.4896,2.4896,2.4896,0,2.4726,2.4754,2.4747,2.4769,2.4778,2.4762,2.4788,2.4795,2.4809,2.4816,2.4803,2.4839,2.4843,2.4879,2.4892,2.4899,2.4906,2.489,2.4948,2.4953,2.4958,2.4976,2.4983,2.4898,2.4898,2.4897,2.4897,0,2.4784,2.4804,2.4824,2.4838,2.485,2.4874,2.4871,2.4883,2.4877,2.4877,2.4906,2.4911,2.4928,2.4936,2.4929,2.4971,2.4963,2.4949,2.4925,2.4968,2.4985,2.4991,2.4901,2.49,2.4899,2.4899,0,0,2.4848,2.486,2.4867,2.4874,2.4884,2.4899,2.4923,2.494,2.4951,2.4962,2.4981,2.5007,2.4994,2.5003,2.4997,2.5015,2.5057,2.4999,2.4999,2.5009,2.5104,2.5114,2.5122,2.505,2.5051,2.5052,2.5103,0,2.4895,2.4937,2.4932,2.4972,2.499,2.4976,2.4997,2.5006,2.5007,2.5023,2.5024,2.5042,2.5025,2.503,2.5047,2.5048,2.5076,2.5045,2.5068,2.5069,2.5065,2.513,2.5141,2.5188,2.5109,2.5111,2.5111,0,2.4956,2.497,2.5011,2.502,2.5028,2.5046,2.5062,2.5078,2.5088,2.5087,2.5098,2.509,2.5114,2.5091,2.5125,2.5104,2.5113,2.5116,2.5117,2.5119,2.5092,2.5133,2.5203,2.5211,2.5121,2.5121,2.512,0,2.4998,2.5027,2.5056,2.5062,2.5073,2.5087,2.5092,2.5101,2.5112,2.5125,2.5132,2.5149,2.5157,2.517,2.5167,2.515,2.5202,2.5178,2.5202,2.5202,2.5213,2.5212,2.5285,2.522,2.522,2.522,2.522,0,2.5051,2.5077,2.5075,2.5093,2.5122,2.5117,2.5146,2.5149,2.5158,2.5176,2.5165,2.5183,2.5178,2.5195,2.5193,2.5221,2.5226,2.5226,2.5225,2.5227,2.5226,2.5232,2.5228,2.5222,2.5221,2.5221,2.5221,0,2.5103,2.5102,2.5133,2.5141,2.5144,2.5165,2.5172,2.5189,2.519,2.5214,2.5219,2.522,2.5241,2.5239,2.5261,2.526,2.5295,2.5291,2.5292,2.5291,2.5315,2.5313,2.5394,2.5404,2.5333,2.5334,2.5334,0,2.5136,2.5156,2.5167,2.5179,2.5185,2.5204,2.5215,2.5211,2.5224,2.5238,2.5253,2.5272,2.5287,2.5321,2.5324,2.5341,2.5336,2.5364,2.5339,2.534,2.5337,2.5335,2.5337,2.5368,2.5369,2.537,2.537,0,2.5196,2.5195,2.5211,2.5229,2.5243,2.5256,2.5268,2.5278,2.5276,2.529,2.5311,2.5323,2.5347,2.5366,2.5383,2.5389,2.5379,2.5378,2.5385,2.5386,2.5386,2.5386,2.5305,2.5376,2.5376,2.5375,2.5375,2.5375,2.5239,2.5256,2.5267,2.5286,2.5295,2.5307,2.5324,2.5327,2.5345,2.5364,2.5361,2.5384,2.5395,2.5417,2.5425,2.5443,2.5433,2.5443,2.5445,2.5447,2.545,2.5384,2.5446,2.5446,2.5446,2.5446,2.5446,0,2.5297,2.5304,2.5322,2.534,2.5355,2.5346,2.536,2.5373,2.5394,2.5405,2.5421,2.5445,2.5465,2.547,2.5489,2.5503,2.5499,2.5508,2.5506,2.5508,2.5458,2.545,2.551,2.551,2.551,2.551,2.551,2.551,2.533,2.5359,2.536,2.5394,2.54,2.5423,2.5432,2.5443,2.5452,2.548,2.5496,2.55,2.5509,2.5529,2.5546,2.5547,2.5555,2.5565,2.5564,2.5517,2.5511,2.5505,2.5498,2.5567,2.5567,2.5613,2.5613,2.5613]},{"header":{"parameterUnit":"m.s-1","parameterCategory":1,"la1":30.2991,"la2":30.254,"lo1":-89.0895,"lo2":-89.0444,"dy":0.0017,"dx":0.0017,"nx":28,"ny":28,"refTime":"2026-02-03T09:00:00:Z","depth":0,"parameterNumber":3,"parameterNumberName":"V-component_of_WINDS"},"data":[0,0,0,0,0,0,0,0,0,0,0,0,0,0,0,0,0,0,0,0,0,0,0,0,0,0,0,0,0,0,0,0,0,0,0,0,0,0,0,0,0,0,0,0,0,0,0,0,0,0,0,0,0,0,0,0,0,0,-8.0387,-8.0389,0,-8.058,-8.0582,-8.0584,-8.0535,-8.0531,-8.0528,-8.0524,-8.0714,-8.0723,-8.0731,0,0,0,0,0,0,0,0,0,0,0,0,0,-7.9972,-7.998,-8.0387,-8.0389,-8.0392,-8.0579,-8.0582,-8.0585,-8.0536,-8.0531,-8.0527,-8.0522,-8.0712,-8.0722,-8.0732,0,0,0,0,0,0,0,0,0,0,0,0,0,-8.0157,-7.9982,-8.0386,-8.039,-8.0393,-8.0579,-8.0582,-8.0585,-8.0537,-8.0531,-8.0525,-8.052,-8.0708,-8.0721,-8.0733,-8.0926,0,0,-8.0773,-8.0778,0,0,0,0,0,0,0,0,-8.0146,-8.0172,-8.0387,-8.039,-8.0393,-8.0528,-8.0505,-8.0699,-8.0538,-8.0482,-8.0524,-8.0517,-8.0656,-8.0673,-8.0721,-8.0935,-8.0943,-8.0774,-8.0782,-8.0787,-8.0791,0,0,0,0,0,0,0,-8.0134,-8.0163,-8.0463,-8.039,-8.0394,-8.0381,-8.0401,-8.0542,-8.0598,-8.0486,-8.0483,-8.0507,-8.0657,-8.0709,-8.0726,-8.0946,-8.0773,-8.0785,-8.0793,-8.0798,-8.1327,-8.1333,0,0,0,0,0,0,-8.0119,-8.0153,-8.0457,-8.0469,-8.0254,-8.0393,-8.0415,-8.049,-8.0597,-8.0607,-8.0512,-8.0504,-8.069,-8.0711,-8.0732,-8.0966,-8.0787,-8.0799,-8.0807,-8.1321,-8.1329,-8.1335,0,0,0,0,0,0,-8.011,-8.0147,-8.0449,-8.031,-8.0348,-8.0406,-8.049,-8.0497,-8.0549,-8.0616,-8.0625,-8.0555,-8.0686,-8.0714,-8.0879,-8.0971,-8.0805,-8.0817,-8.1313,-8.1323,-8.1332,-8.1433,0,0,0,0,0,0,-8.0099,-8.0144,-8.0219,-8.0312,-8.0355,-8.0595,-8.0496,-8.0505,-8.0572,-8.0564,-8.0659,-8.0669,-8.0684,-8.086,-8.0892,-8.0986,-8.0827,-8.1305,-8.1318,-8.1329,-8.1422,-8.1445,-8.1465,0,0,0,0,0,-8.0084,-8.0238,-8.0223,-8.026,-8.0451,-8.06,-8.0624,-8.064,-8.058,-8.0655,-8.0698,-8.0666,-8.0956,-8.0877,-8.0912,-8.1012,-8.13,-8.1314,-8.1328,-8.1412,-8.1441,-8.1464,0,0,0,0,0,0,-8.0151,-8.025,-8.0235,-8.0424,-8.0504,-8.0592,-8.0687,-8.0669,-8.0767,-8.0755,-8.0768,-8.079,-8.0959,-8.1001,-8.0912,-8.1204,-8.1119,-8.1141,-8.1171,-8.1198,-8.1219,-8.1206,-8.0837,0,0,0,0,0,-8.0188,-8.0303,-8.0383,-8.0541,-8.0583,-8.0628,-8.0694,-8.07,-8.0782,-8.0815,-8.087,-8.095,-8.1059,-8.1131,-8.1235,-8.1428,-8.1448,-8.1514,-8.1535,-8.1552,-8.1571,-8.1678,-8.1708,-8.1382,-8.1382,-8.1382,0,0,-8.0265,-8.0333,-8.0405,-8.0557,-8.062,-8.0738,-8.0657,-8.0784,-8.0871,-8.0834,-8.0994,-8.1037,-8.1127,-8.1307,-8.1389,-8.1348,-8.1666,-8.1571,-8.1584,-8.1594,-8.1695,-8.1726,-8.1754,-8.1392,-8.139,-8.1389,0,0,-8.0466,-8.0529,-8.067,-8.0735,-8.0833,-8.0862,-8.0896,-8.0987,-8.1015,-8.1177,-8.1151,-8.1254,-8.1441,-8.1507,-8.1565,-8.1793,-8.1767,-8.1826,-8.1938,-8.2042,-8.2067,-8.209,-8.2172,-8.2202,-8.1844,-8.1845,-8.1845,0,-8.0549,-8.0727,-8.0743,-8.0875,-8.0942,-8.0916,-8.1058,-8.112,-8.1245,-8.1292,-8.1244,-8.1481,-8.1539,-8.1735,-8.1791,-8.1839,-8.1877,-8.1815,-8.2063,-8.2086,-8.2107,-8.2186,-8.2217,-8.1851,-8.185,-8.185,-8.1849,0,-8.0825,-8.0949,-8.105,-8.1176,-8.1254,-8.139,-8.1425,-8.1503,-8.1501,-8.1535,-8.17,-8.177,-8.1888,-8.1935,-8.1933,-8.2131,-8.2103,-8.2059,-8.1974,-8.2145,-8.2219,-8.2249,-8.1861,-8.1858,-8.1856,-8.1855,0,0,-8.1073,-8.1207,-8.1244,-8.1302,-8.1408,-8.1503,-8.1637,-8.1756,-8.1822,-8.1909,-8.2022,-8.2182,-8.2143,-8.2209,-8.2215,-8.2306,-8.2483,-8.2251,-8.2253,-8.2293,-8.2706,-8.274,-8.2774,-8.2467,-8.2473,-8.2477,-8.2699,0,-8.1285,-8.1524,-8.1543,-8.1757,-8.1872,-8.185,-8.1967,-8.2044,-8.2079,-8.218,-8.2218,-8.2332,-8.2271,-8.2311,-8.24,-8.2443,-8.2567,-8.2427,-8.2571,-8.2576,-8.2551,-8.2813,-8.2848,-8.3054,-8.2728,-8.2733,-8.2737,0,-8.1563,-8.1663,-8.189,-8.1982,-8.2031,-8.2136,-8.2247,-8.2344,-8.2431,-8.245,-8.2525,-8.2519,-8.2655,-8.2564,-8.2752,-8.2657,-8.2716,-8.2746,-8.2755,-8.2769,-8.2667,-8.2835,-8.312,-8.3152,-8.2782,-8.2778,-8.2775,0,-8.1724,-8.1913,-8.2075,-8.2124,-8.2235,-8.2309,-8.2358,-8.244,-8.251,-8.2606,-8.2652,-8.2762,-8.2822,-8.2906,-8.2929,-8.2861,-8.3117,-8.3027,-8.3136,-8.3136,-8.3192,-8.3188,-8.3491,-8.3229,-8.3228,-8.3227,-8.3227,0,-8.1958,-8.2098,-8.2148,-8.2248,-8.2404,-8.2423,-8.2577,-8.2621,-8.2694,-8.28,-8.2786,-8.2885,-8.291,-8.3013,-8.3032,-8.3185,-8.3212,-8.323,-8.3234,-8.3233,-8.3231,-8.3273,-8.3259,-8.3236,-8.3234,-8.3232,-8.3231,0,-8.2164,-8.2203,-8.2377,-8.2469,-8.2495,-8.2606,-8.2684,-8.2778,-8.2812,-8.2947,-8.2979,-8.3032,-8.3154,-8.3185,-8.3329,-8.3342,-8.3523,-8.3512,-8.3495,-8.3495,-8.3602,-8.3592,-8.3944,-8.3991,-8.3697,-8.3699,-8.3702,0,-8.2312,-8.242,-8.2524,-8.2596,-8.2649,-8.2764,-8.2837,-8.286,-8.2936,-8.3044,-8.3125,-8.3246,-8.3344,-8.3539,-8.3588,-8.3699,-8.3691,-8.3807,-8.3707,-8.3703,-8.3694,-8.3688,-8.3699,-8.3826,-8.3829,-8.3831,-8.3833,0,-8.2571,-8.2585,-8.2692,-8.2807,-8.2895,-8.2985,-8.3072,-8.313,-8.3165,-8.3251,-8.3377,-8.3454,-8.3603,-8.3722,-8.3834,-8.3882,-8.3864,-8.3864,-8.3896,-8.3896,-8.3882,-8.3892,-8.3548,-8.3856,-8.3854,-8.3852,-8.3851,-8.385,-8.2753,-8.2849,-8.2938,-8.3057,-8.3125,-8.3207,-8.3302,-8.3348,-8.3455,-8.358,-8.3586,-8.3723,-8.3807,-8.3956,-8.4011,-8.4117,-8.4082,-8.4126,-8.4138,-8.4149,-8.4159,-8.3865,-8.4137,-8.4136,-8.4136,-8.4135,-8.4135,0,-8.3012,-8.3069,-8.3179,-8.3303,-8.3397,-8.3374,-8.3468,-8.3548,-8.367,-8.3751,-8.3849,-8.3993,-8.411,-8.4169,-8.4285,-8.4358,-8.4353,-8.4388,-8.4383,-8.4395,-8.4183,-8.4146,-8.439,-8.439,-8.439,-8.439,-8.439,-8.439,-8.3159,-8.332,-8.3345,-8.3539,-8.3594,-8.3731,-8.3787,-8.3862,-8.3927,-8.4091,-8.4189,-8.4227,-8.43,-8.4421,-8.4526,-8.454,-8.4584,-8.4624,-8.4634,-8.4435,-8.4409,-8.4384,-8.4349,-8.4633,-8.4633,-8.4836,-8.4838,-8.4839]}]]